Location: Unspecified
(0.0000°N, 0.0000°E)
Time: 08:40:09
(UTC+00:00)

XW-2C - Pass Details

Date: 19 May 2021
Orbit: 506 x 525 km, 97.5° (Epoch: 17 June)

Event Time Altitude Azimuth Distance (km) Brightness Sun altitude
Rises 05:09:44 0° 26° (NNE) 2,631 ? -11.0°
Reaches altitude 10° 05:11:58 10° 35° (NE) 1,744 ? -10.5°
Maximum altitude 05:15:24 34° 101° (E) 864 ? -9.7°
Drops below altitude 10° 05:18:49 10° 167° (SSE) 1,741 ? -8.9°
Sets 05:21:02 0° 176° (S) 2,626 ? -8.3°
